Regional Weather Roundup
Issued by NWS

Home | Current Version | Previous Version | Text Only | Print | Product List | Glossary On
Versions: 1 2 3 4 5 6 7 8 9 10 11 12 13 14 15 16 17 18 19 20 21 22 23 24 25 26 27
000
ASUS44 KJAN 250610
RWRMS

MISSISSIPPI HOURLY WEATHER ROUNDUP
NATIONAL WEATHER SERVICE JACKSON MS
100 AM CDT MON SEP 25 2017

NOTE: "FAIR: INDICATES FEW OR NO CLOUDS BELOW 12,000 FEET WITH NO
SIGNIFICANT WEATHER AND/OR OBSTRUCTIONS TO VISIBILITY.

MSZ001>002-007>008-010>013-018>021-025>028-034>036-250700-
NORTHWEST MISSISSIPPI

CITY           SKY/WX    TMP DP  RH WIND       PRES   REMARKS
BATESVILLE     FAIR      67  66  94 CALM      29.98R FOG
CLARKSDALE       N/A     70  70 100 CALM      29.96S
CLEVELAND      FAIR      73  70  91 S5        29.95R
GREENWOOD      CLEAR     69  67  93 CALM      29.95S
6HR MIN TEMP:  69; 6HR MAX TEMP:  81;

GREENVILLE     CLEAR     70  65  84 CALM      29.95S
6HR MIN TEMP:  69; 6HR MAX TEMP:  81;

TUNICA           N/A    N/A N/A N/A CALM      29.97S
WINONA         FAIR      67  67 100 CALM      29.96S
$$

MSZ003>006-009-014>017-022>024-029>033-037>039-250700-
NORTHEAST MISSISSIPPI

CITY           SKY/WX    TMP DP  RH WIND       PRES   REMARKS
COLUMBUS AFB   CLOUDY    68  68 100 CALM      29.95F
6HR MIN TEMP:  68; 6HR MAX TEMP:  80;

STARKVILLE     FAIR      68  64  88 CALM      29.97S
TUPELO         CLEAR     70  66  87 N5        29.97S
6HR MIN TEMP:  69; 6HR MAX TEMP:  83;

$$

MSZ040-058-250700-
CENTRAL MISSISSIPPI

CITY           SKY/WX    TMP DP  RH WIND       PRES   REMARKS
JACKSON INTL   CLEAR     69  67  93 CALM      29.95S
6HR MIN TEMP:  69; 6HR MAX TEMP:  79;

JACKSON HAWKNS CLEAR     69  68  96 CALM      29.96S
6HR MIN TEMP:  68; 6HR MAX TEMP:  78;

MADISON        FAIR      66  64  94 CALM      29.95S
MERIDIAN KEY   CLEAR     69  68  96 CALM      29.95F
6HR MIN TEMP:  69; 6HR MAX TEMP:  82;

MERIDIAN NAS   CLOUDY    71  68  90 CALM      29.96S
6HR MIN TEMP:  71; 6HR MAX TEMP:  80;

RAYMOND        FAIR      68  66  94 CALM      29.95S FOG
VICKSBURG VKS  CLEAR     68  68 100 CALM      29.96S
$$

MSZ059>079-250700-
SOUTH MISSISSIPPI

CITY           SKY/WX    TMP DP  RH WIND       PRES   REMARKS
COLUMBIA       FAIR      64 N/A N/A CALM      29.99R
HATTIESBURG    CLEAR     69  69 100 CALM      29.95S
6HR MIN TEMP:  68; 6HR MAX TEMP:  75;

LAUREL         FAIR      67  67 100 CALM      29.95F
MCCOMB         CLEAR     67  65  93 N3        29.95S
6HR MIN TEMP:  67; 6HR MAX TEMP:  74; 6HR PCP: TRACE;

NATCHEZ        CLEAR     71  67  87 SE3       29.95S
6HR MIN TEMP:  71; 6HR MAX TEMP:  81;

PINE BELT      CLEAR     67  67 100 CALM      29.95F FOG
6HR MIN TEMP:  67; 6HR MAX TEMP:  71;

$$

MSZ080>082-250700-
COASTAL MISSISSIPPI

CITY           SKY/WX    TMP DP  RH WIND       PRES   REMARKS
BILOXI         CLEAR     71  69  93 NE6       29.91S
6HR MIN TEMP:  71; 6HR MAX TEMP:  73; 6HR PCP:  0.02;

PASCAGOULA     CLOUDY    70  68  93 CALM      29.91F
6HR MIN TEMP:  69; 6HR MAX TEMP:  74;

GULFPORT       CLEAR     71  70  96 N3        29.91S
6HR MIN TEMP:  71; 6HR MAX TEMP:  74; 6HR PCP:  0.01;

$$

LAZ007>009-015>016-023>026-250700-
NORTHEAST LOUISIANA

CITY           SKY/WX    TMP DP  RH WIND       PRES   REMARKS
BASTROP        FAIR      70  69  98 CALM      29.94F
TALLULAH/VBURG CLEAR     67  65  93 CALM      29.94F
6HR MIN TEMP:  67; 6HR MAX TEMP:  82;

VIDALIA          N/A    N/A N/A N/A MISG      29.93S
$$




USA.gov is the U.S. government's official web portal to all federal, state and local government web resources and services.